Regional Weather Roundup
Issued by NWS

Home | Current Version | Previous Version | Text Only | Print | Product List | Glossary Off
Versions: 1 2 3 4 5 6 7 8 9 10 11 12 13 14 15 16 17 18 19 20 21 22 23 24 25 26 27 28 29 30 31 32 33 34 35 36 37 38 39 40 41 42 43 44 45 46 47 48 49 50

000
ASUS43 KTOP 261359
RWRKS

WEATHER ROUNDUP FOR KANSAS
NATIONAL WEATHER SERVICE GOODLAND KS
800 AM CST SUN FEB 26 2017

NOTE:  "FAIR" INDICATES FEW OR NO CLOUDS BELOW 12,000 FEET WITH NO
SIGNIFICANT WEATHER AND/OR OBSTRUCTIONS TO VISIBILITY.

KSZ001>006-013>018-027>032-041>047-261500-
NORTHWEST KANSAS

CITY           SKY/WX    TMP DP  RH WIND       PRES   REMARKS
GOODLAND       CLEAR     13   7  77 W7        29.87S
HAYS           CLEAR     20  15  81 NW5       29.93R
HILL CITY      CLEAR     19  12  74 N8        29.93R
RUSSELL        CLEAR     25  18  74 E8        29.92R
$$

KSZ061>065-074>080-084>089-261500-
SOUTHWEST KANSAS

CITY           SKY/WX    TMP DP  RH WIND       PRES   REMARKS
DODGE CITY     CLEAR     21  14  74 N7        29.89R
ELKHART          N/A     24   0  35 W8          N/A
GARDEN CITY    CLEAR     16  10  77 NW9       29.89R
GREAT BEND     CLEAR     23  17  78 N6        29.93R
LIBERAL        CLEAR     27  10  50 NW13      29.85R WCI  16
$$

KSZ066>073-081>083-090>101-261500-
SOUTHEAST KANSAS

CITY           SKY/WX    TMP DP  RH WIND       PRES   REMARKS
CHANUTE        CLOUDY    37  20  50 SE8       30.01F
COFFEYVILLE    CLOUDY    38  23  55 SE9       30.02S
HUTCHINSON     CLOUDY    30  20  66 CALM      29.92R
MEDICINE LODGE   N/A     31  20  63 SE3       29.91R
NEWTON         PTCLDY    33  20  58 SE9       29.93S
PARSONS        CLOUDY    39  21  48 VRB5      30.02S
WICHITA INTL   CLOUDY    35  22  58 S6        29.93R
WICHITA JABRA  CLOUDY    34  22  61 SE8       29.93F
WINFIELD       CLOUDY    36  22  56 SE7       29.96S
$$

KSZ007>012-019>026-033>040-048>060-102>105-261500-
NORTHEAST KANSAS

CITY           SKY/WX    TMP DP  RH WIND       PRES   REMARKS
CONCORDIA      CLOUDY    34  27  75 S10       29.94F WCI  26
EMPORIA        MOSUNNY   32  32 100 E8        29.98R FOG
LAWRENCE       LGT SNOW  33  33 100 SE3       30.03S VSB 3/4
MANHATTAN      CLOUDY    35  32  88 N5        29.99S
OLATHE IND     CLOUDY    36  28  73 SW8       30.03S
OLATHE EXE     LGT SNOW  34  32  92 SW5       30.03R FOG
SALINA         FOG       31  29  92 NE5       29.97R VSB 1/4
TOPEKA BILLARD CLOUDY    34  32  92 SE5       30.02R
TOPEKA FORBES  CLOUDY    36  29  75 SE5       30.01S BLWGSNOW
$$




USA.gov is the U.S. government's official web portal to all federal, state and local government web resources and services.